When you browse on this site, cookies collect data to enhance your experience and personalize the content and advertising you see.
Visit our Privacy Policy to learn more. By continuing to use the site, you agree to this use of cookies and data.

Hourly Weather Encamp

Today, 12 July, Sunday

Time Temperature Precipitation Wind Pressure Humidity
00:00 +12°C° 0 mm 0 mps 627 mmHg 93%
01:00 +13°C° 0 mm 1 mps 627 mmHg 93%
02:00 +13°C° 0 mm 1 mps 626 mmHg 93%
03:00 +12°C° 0 mm 1 mps 626 mmHg 93%
04:00 +13°C° 0 mm 1 mps 627 mmHg 91%
05:00 +14°C° 0 mm 1 mps 627 mmHg 89%
06:00 +15°C° 0 mm 1 mps 628 mmHg 86%
07:00 +18°C° 0.1 mm 1 mps 628 mmHg 81%
08:00 +19°C° 0.1 mm 1 mps 629 mmHg 75%
09:00 +21°C° 0.1 mm 1 mps 630 mmHg 70%
10:00 +21°C° 1.9 mm 1 mps 630 mmHg 71%
11:00 +20°C° 1.9 mm 2 mps 630 mmHg 72%
12:00 +20°C° 1.9 mm 2 mps 630 mmHg 73%
13:00 +21°C° 1.8 mm 1 mps 630 mmHg 72%
14:00 +21°C° 1.8 mm 1 mps 629 mmHg 71%
15:00 +22°C° 1.8 mm 1 mps 629 mmHg 70%
16:00 +21°C° 1.1 mm 1 mps 629 mmHg 73%
17:00 +20°C° 1.1 mm 1 mps 628 mmHg 77%
18:00 +20°C° 1.1 mm 1 mps 628 mmHg 81%
19:00 +18°C° 0.6 mm 1 mps 628 mmHg 84%
20:00 +15°C° 0.6 mm 1 mps 627 mmHg 87%
21:00 +14°C° 0.6 mm 1 mps 627 mmHg 89%
22:00 +14°C° 0.7 mm 1 mps 627 mmHg 89%
23:00 +14°C° 0.7 mm 1 mps 627 mmHg 88%

Tomorrow, 13 July, Monday

Time Temperature Precipitation Wind Pressure Humidity
00:00 +13°C° 0.7 mm 0 mps 627 mmHg 88%
01:00 +13°C° 0.3 mm 1 mps 627 mmHg 88%
02:00 +13°C° 0.3 mm 1 mps 627 mmHg 88%
03:00 +13°C° 0.3 mm 1 mps 627 mmHg 88%
04:00 +13°C° 0 mm 1 mps 627 mmHg 87%
05:00 +13°C° 0 mm 1 mps 627 mmHg 87%
06:00 +14°C° 0 mm 1 mps 628 mmHg 87%
07:00 +16°C° 0.2 mm 1 mps 628 mmHg 81%
08:00 +18°C° 0.2 mm 1 mps 629 mmHg 75%
09:00 +20°C° 0.2 mm 1 mps 630 mmHg 69%
10:00 +20°C° 1.1 mm 1 mps 630 mmHg 71%
11:00 +20°C° 1.1 mm 1 mps 629 mmHg 72%
12:00 +20°C° 1.1 mm 1 mps 629 mmHg 74%
13:00 +20°C° 1.8 mm 1 mps 629 mmHg 76%
14:00 +19°C° 1.8 mm 1 mps 628 mmHg 79%
15:00 +19°C° 1.8 mm 1 mps 628 mmHg 81%
16:00 +18°C° 1.3 mm 1 mps 627 mmHg 84%
17:00 +16°C° 1.3 mm 1 mps 627 mmHg 87%
18:00 +15°C° 1.3 mm 1 mps 626 mmHg 90%
19:00 +14°C° 0.2 mm 1 mps 626 mmHg 92%
20:00 +13°C° 0.2 mm 1 mps 626 mmHg 93%
21:00 +12°C° 0.2 mm 2 mps 626 mmHg 95%
22:00 +10°C° 0 mm 2 mps 626 mmHg 94%
23:00 +10°C° 0 mm 2 mps 626 mmHg 94%

Day after tomorrow, 14 July, Tuesday

Time Temperature Precipitation Wind Pressure Humidity
00:00 +10°C° 0 mm 1 mps 625 mmHg 94%
01:00 +10°C° 0 mm 1 mps 625 mmHg 93%
02:00 +10°C° 0 mm 1 mps 625 mmHg 92%
03:00 +10°C° 0 mm 1 mps 625 mmHg 91%
04:00 +10°C° 0 mm 1 mps 625 mmHg 90%
05:00 +11°C° 0 mm 1 mps 625 mmHg 89%
06:00 +11°C° 0 mm 1 mps 625 mmHg 87%
07:00 +13°C° 0 mm 1 mps 626 mmHg 79%
08:00 +14°C° 0 mm 1 mps 627 mmHg 72%
09:00 +16°C° 0 mm 1 mps 627 mmHg 64%
10:00 +16°C° 0 mm 1 mps 627 mmHg 63%
11:00 +18°C° 0 mm 1 mps 627 mmHg 62%
12:00 +19°C° 0 mm 1 mps 627 mmHg 61%
13:00 +18°C° 0.1 mm 1 mps 627 mmHg 64%
14:00 +18°C° 0.1 mm 1 mps 626 mmHg 67%
15:00 +18°C° 0.1 mm 1 mps 626 mmHg 71%
16:00 +16°C° 0.3 mm 1 mps 625 mmHg 75%
17:00 +15°C° 0.3 mm 1 mps 625 mmHg 80%
18:00 +14°C° 0.3 mm 1 mps 625 mmHg 84%
19:00 +14°C° 0.1 mm 1 mps 625 mmHg 86%
20:00 +13°C° 0.1 mm 1 mps 625 mmHg 88%
21:00 +12°C° 0.1 mm 1 mps 625 mmHg 90%
22:00 +12°C° 0 mm 1 mps 625 mmHg 90%
23:00 +12°C° 0 mm 1 mps 625 mmHg 90%

15 July, Wednesday

Time Temperature Precipitation Wind Pressure Humidity
00:00 +11°C° 0 mm 1 mps 625 mmHg 90%
01:00 +11°C° 0 mm 1 mps 625 mmHg 91%
02:00 +11°C° 0 mm 1 mps 625 mmHg 92%
03:00 +10°C° 0 mm 1 mps 624 mmHg 93%
04:00 +11°C° 0 mm 1 mps 625 mmHg 92%
05:00 +11°C° 0 mm 1 mps 625 mmHg 90%
06:00 +11°C° 0 mm 1 mps 626 mmHg 89%
07:00 +13°C° 0 mm 1 mps 626 mmHg 83%
08:00 +15°C° 0 mm 1 mps 627 mmHg 76%
09:00 +16°C° 0 mm 1 mps 628 mmHg 70%
10:00 +18°C° 0.2 mm 1 mps 628 mmHg 70%
11:00 +18°C° 0.2 mm 1 mps 628 mmHg 70%
12:00 +18°C° 0.2 mm 1 mps 628 mmHg 70%
13:00 +18°C° 0.5 mm 1 mps 627 mmHg 73%
14:00 +16°C° 0.5 mm 1 mps 627 mmHg 77%
15:00 +16°C° 0.5 mm 1 mps 626 mmHg 80%
16:00 +15°C° 0.4 mm 1 mps 626 mmHg 83%
17:00 +14°C° 0.4 mm 1 mps 626 mmHg 86%
18:00 +14°C° 0.4 mm 1 mps 626 mmHg 88%
19:00 +13°C° 0.2 mm 1 mps 626 mmHg 90%
20:00 +12°C° 0.2 mm 1 mps 626 mmHg 92%
21:00 +12°C° 0.2 mm 1 mps 626 mmHg 94%
22:00 +11°C° 0 mm 1 mps 626 mmHg 94%
23:00 +11°C° 0 mm 1 mps 626 mmHg 94%

16 July, Thursday

Time Temperature Precipitation Wind Pressure Humidity
00:00 +11°C° 0 mm 1 mps 626 mmHg 95%
01:00 +11°C° 0 mm 1 mps 626 mmHg 95%
02:00 +10°C° 0 mm 1 mps 626 mmHg 95%
03:00 +10°C° 0 mm 1 mps 625 mmHg 95%
04:00 +10°C° 0 mm 1 mps 626 mmHg 94%
05:00 +11°C° 0 mm 1 mps 626 mmHg 93%
06:00 +11°C° 0 mm 1 mps 626 mmHg 92%
07:00 +13°C° 0 mm 1 mps 627 mmHg 81%
08:00 +15°C° 0 mm 1 mps 628 mmHg 70%
09:00 +18°C° 0 mm 1 mps 628 mmHg 60%
10:00 +18°C° 0 mm 2 mps 629 mmHg 56%
11:00 +19°C° 0 mm 2 mps 629 mmHg 51%
12:00 +20°C° 0 mm 2 mps 629 mmHg 47%
13:00 +20°C° 0 mm 3 mps 629 mmHg 50%
14:00 +20°C° 0 mm 3 mps 629 mmHg 52%
15:00 +20°C° 0 mm 3 mps 628 mmHg 54%
16:00 +19°C° 0 mm 3 mps 628 mmHg 61%
17:00 +17°C° 0 mm 2 mps 627 mmHg 67%
18:00 +16°C° 0 mm 2 mps 626 mmHg 74%
19:00 +14°C° 0 mm 2 mps 626 mmHg 80%
20:00 +13°C° 0 mm 2 mps 626 mmHg 85%
21:00 +10°C° 0 mm 2 mps 626 mmHg 91%
22:00 +10°C° 0 mm 2 mps 626 mmHg 91%
23:00 +9°C° 0 mm 2 mps 625 mmHg 90%

17 July, Friday

Time Temperature Precipitation Wind Pressure Humidity
00:00 +9°C° 0 mm 2 mps 625 mmHg 90%
01:00 +9°C° 0 mm 2 mps 625 mmHg 90%
02:00 +9°C° 0 mm 2 mps 625 mmHg 91%
03:00 +9°C° 0 mm 2 mps 625 mmHg 91%
04:00 +9°C° 0 mm 2 mps 625 mmHg 88%
05:00 +9°C° 0 mm 2 mps 625 mmHg 86%
06:00 +10°C° 0 mm 2 mps 626 mmHg 83%
07:00 +13°C° 0 mm 2 mps 626 mmHg 76%
08:00 +15°C° 0 mm 2 mps 627 mmHg 69%
09:00 +16°C° 0 mm 2 mps 628 mmHg 62%
10:00 +18°C° 0 mm 2 mps 628 mmHg 56%
11:00 +19°C° 0 mm 2 mps 629 mmHg 51%
12:00 +21°C° 0 mm 3 mps 629 mmHg 45%
13:00 +21°C° 0 mm 3 mps 629 mmHg 45%
14:00 +21°C° 0 mm 3 mps 628 mmHg 46%
15:00 +21°C° 0 mm 3 mps 628 mmHg 46%
16:00 +19°C° 0 mm 2 mps 628 mmHg 54%
17:00 +18°C° 0 mm 2 mps 627 mmHg 62%
18:00 +17°C° 0 mm 2 mps 627 mmHg 69%
19:00 +15°C° 0 mm 2 mps 627 mmHg 77%
20:00 +13°C° 0 mm 2 mps 626 mmHg 84%
21:00 +12°C° 0 mm 2 mps 626 mmHg 91%
22:00 +10°C° 0 mm 2 mps 626 mmHg 90%
23:00 +10°C° 0 mm 2 mps 626 mmHg 88%
Show more